Weather in Stepanovka

Russia / Krasnoyarsk Krai     55°11′15″N   95°45′37″E
temp.,
°C
wind,
m/s
gust,
m/s
humid.,
%
clouds,
%
prec.,
mm/h
press.,
hPa
HPBL,
m
13 june, sun
sun1301:00+8wsw1179100 0.0 101310
04:00+8wsw1183100 0.0 101321
07:00+11wsw2366100 0.0 1013269
10:00+17wnw234095 0.0 10111068
13:00+19wnw453493 0.0 10102440
16:00+19wnw4736100 0.0 10092338
19:00+17wsw2554100 0.0 1009278
22:00+11w2779100 0.1 1011288
14 june, mon
mon1401:00+10wsw41296100 1.4 1011938
04:00+10w41194100 5.3 1010686
07:00+9wnw3899100 12.1 1011570
10:00+10nnw37907 6.3 1013910
13:00+14nw4752100 6.5 10141999
16:00+14nw45639 0.9 10151385
19:00+12nw257857 2.4 1016345
22:00+7ssw22895 0.1 101817
15 june, tue
tue1501:00+6sw229292 0.3 101843
04:00+5sw22936 0.0 101844
07:00+10wsw37806 0.0 1018260
10:00+17w464181 0.0 10171913
13:00+17wnw364686 0.0 10162203
16:00+18wnw4745100 0.0 10151972
19:00+15wsw2668100 0.3 1016373
22:00+10sw2489100 0.1 101759
16 june, wed
wed1601:00+10sw1185100 0.2 101634
04:00+9s2598100 2.8 1016140
07:00+10sse3897100 10.1 1015246
10:00+10s2899100 10.2 1014357
13:00+11sw2896100 14.9 1013333
16:00+12sw2598100 3.6 1013161
19:00+13ssw1399100 11.5 1012162
22:00+12ssw1199100 3.6 101231
17 june, thu
thu1701:00+12s2399100 11.0 101179
04:00+12e1199100 0.4 101237
07:00+12ese1399100 0.8 1012140
10:00+14e1295100 0.2 1012237
13:00+17sse1283100 0.4 1011483
16:00+22se1259100 0.2 10091285
19:00+15ssw3698100 6.9 1009276
22:00+14s2898100 2.8 1008297